{"data":{"norad_id":66003,"epoch":"2026-09-20T08:36:51.163200Z","epoch_age_seconds":152624,"freshness":"FRESH","line1":"1 66003U 25231J   26263.35892550 -.00000107  00000+0  37743-4 0  9990","line2":"2 66003  50.0026 194.0538 0000396  55.1876 304.9033 13.29327646 45554","mean_motion":13.29327646,"eccentricity":3.96e-5,"inclination_deg":50.0026,"raan_deg":194.0538,"arg_perigee_deg":55.1876,"mean_anomaly_deg":304.9033,"bstar":3.7743e-5,"rev_number":4555,"period_min":108.32543837729,"perigee_km":1149.0022715793,"apogee_km":1149.5984446181,"semimajor_km":7527.4373580987,"source":"CELESTRAK","updated_at":"2026-09-21T09:00:15.694912Z"}}